DMSP 5D-2 F14 DEB

Satellite information

Favourite Embed

Satellite Type and Status

DEBRISIN ORBIT

Key statistics

Satellite DMSP 5D-2 F14 DEB at a glance.

Uptime

10480

Days in orbit

Revolutions

≈ 14.4

Per day

Orbit

SSO

Sun Synchronous Orbit

Inclination

98.9

Latest

Satellite identification and parameters

Extended collection of information and parameters for DMSP 5D-2 F14 DEB.

Object identification

Identified? True

Debris? True

Object name: DMSP 5D-2 F14 DEB

International designator: 1997-012H

Object number (NORAD): 62937

Object ID (CCSDS): 62937

Country: UNITED STATES OF AMERICA (US)

Current information (Y/N): Y

RCS size: SMALL

Orbital parameters

Period: 100.185 minutes

Inclination: 98.8823 deg

SMA: 7145.448 km

Apoapsis: 790.172 km

Periapsis: 744.455 km

RAAN: 35.9522 deg

Eccentricy: 0.00319905

Argument of periapsis: 213.0358 deg

Mean anomaly: 146.8829 deg

Mean motion: 14.37336757 rev/day

Mean motion (dot): 0.00042796 rev/day2

B* drag term: 0.014181099 1/REarth

Two-line elements (TLE)

Creation date: Dec. 11, 2025, 10:54 a.m.

Reference frame: TEME

Reference center: EARTH

Epoch: Dec. 11, 2025, 1:54 a.m. UTC

TLE line 0: 0 DMSP 5D-2 F14 DEB

TLE line 1: 1 62937U 97012H 25345.07980423 .00042796 00000-0 14181-1 0 9992

TLE line 2: 2 62937 98.8823 35.9522 0031991 213.0358 146.8829 14.37336757 50838

Live tracking on map

Real-time ground track for satellite DMSP 5D-2 F14 DEB.

In-orbit conjunctions

A list of the most updated potential collisions computed for object DMSP 5D-2 F14 DEB.

Target Orbit TCA Probability of collision Miss distance Type
SL-8 R/B LEO 2025-10-14 05:16:15 0.0001491128 478.0 (m) ROCKET BODY
METEOR 1-15 LEO 2025-04-01 05:07:31 0.0004539249 195.0 (m) PAYLOAD
SL-3 R/B LEO 2025-03-14 03:49:20 0.000108179 488.0 (m) ROCKET BODY
CZ-6A DEB LEO 2025-02-24 12:27:20 0.0003405519 432.0 (m) DEBRIS

Associated space launch

Military meteorological satellite

DMSP 5D-2 F14 DEB was lifted into orbit during the mission ‘Titan II SLV | DMSP-5D2 F14’, on board a Titan II SLV space rocket.

The launch took place on April 4, 1997, 4:47 p.m. from Space Launch Complex 4W.

For more information about the launch, click the button.

Launch to space Titan II SLV | DMSP-5D2 F14
Titan II SLV | DMSP-5D2 F14

Agency: N/A

Status: Launch Successful

Launch date: April 4, 1997, 4:47 p.m. UTC

Rocket: Titan II SLV

Launch pad: Space Launch Complex 4W

Location: Vandenberg SFB, CA, USA

...

Latest news about this satellite

News about space launch
Retired military weather satellite breaks up

A defunct military weather satellite has broken up in orbit and created more than 50 pieces of debris, the latest in a series of similar incidents. The post Retired military weather satellite breaks up appeared first on SpaceNews.


Newsletter sign-up

Weekly statistics, charts and insights to help you stay on top of the space industry.